WX5II-2 Weather Reports


Display with metric or nautical units.
time (UTC)temp
F
wind
direction
speed
MPH
gust
MPH
rain 1hr
in
rain 24hr
in
rain mn
in
humidity
%
barometer
mb
20260904235331 95 351 9.0 15.0 0.00 0.00 0.00 26 1009.4
20260904234308 96 351 10.0 15.0 0.00 0.00 0.00 26 1009.4
20260904233350 96 351 11.0 15.0 0.00 0.00 0.00 26 1009.4
20260904233244 96 351 11.0 15.0 0.00 0.00 0.00 26 1009.4
20260904232220 96 351 10.0 15.0 0.00 0.00 0.00 26 1009.4
20260904231157 97 351 12.0 16.0 0.00 0.00 0.00 26 1008.4
20260904230133 97 351 15.0 18.0 0.00 0.00 0.00 26 1008.4
20260904225109 98 351 12.0 14.0 0.00 0.00 0.00 25 1008.4
20260904224045 98 351 12.0 17.0 0.00 0.00 0.00 24 1008.4
20260904223021 98 351 8.0 16.0 0.00 0.00 0.00 24 1008.4
20260904221957 98 351 10.0 11.0 0.00 0.00 0.00 25 1008.4
20260904220933 98 351 12.0 17.0 0.00 0.00 0.00 25 1008.4
20260904214846 98 351 10.0 12.0 0.00 0.00 0.00 26 1009.4
20260904213822 99 351 10.0 14.0 0.00 0.00 0.00 26 1009.4
20260904212758 99 351 11.0 13.0 0.00 0.00 0.00 26 1009.4
20260904211734 99 351 11.0 15.0 0.00 0.00 0.00 25 1009.4
20260904210710 99 351 10.0 12.0 0.00 0.00 0.00 25 1009.4
20260904205646 99 351 9.0 16.0 0.00 0.00 0.00 26 1009.4
20260904204622 99 351 10.0 13.0 0.00 0.00 0.00 26 1009.4
20260904203558 99 351 8.0 13.0 0.00 0.00 0.00 26 1010.4
20260904202534 98 351 11.0 12.0 0.00 0.00 0.00 27 1010.4
20260904201506 98 351 8.0 10.0 0.00 0.00 0.00 27 1010.4
20260904200441 98 351 10.0 12.0 0.00 0.00 0.00 28 1010.4
20260904195413 97 351 8.0 12.0 0.00 0.00 0.00 29 1010.4
20260904194348 97 351 9.0 11.0 0.00 0.00 0.00 29 1010.4
20260904193324 97 351 10.0 12.0 0.00 0.00 0.00 29 1010.4
20260904192301 96 351 6.0 11.0 0.00 0.00 0.00 30 1011.4
20260904191405 96 351 12.0 12.0 0.00 0.00 0.00 30 1011.4
20260904191237 96 351 12.0 12.0 0.00 0.00 0.00 30 1011.4
20260904190336 97 351 10.0 12.0 0.00 0.00 0.00 30 1011.4
20260904190214 97 351 10.0 12.0 0.00 0.00 0.00 30 1011.4
20260904185642 96 351 9.0 13.0 0.00 0.00 0.00 30 1011.4
20260904185150 96 351 9.0 13.0 0.00 0.00 0.00 30 1011.4
20260904184238 95 351 4.0 10.0 0.00 0.00 0.00 33 1011.4
20260904184126 95 351 4.0 10.0 0.00 0.00 0.00 33 1011.4
20260904183940 94 351 7.0 10.0 0.00 0.00 0.00 33 1011.4
20260904183043 94 351 7.0 10.0 0.00 0.00 0.00 33 1011.4
20260904182218 94 351 9.0 12.0 0.00 0.00 0.00 35 1012.4
20260904182019 94 351 9.0 12.0 0.00 0.00 0.00 35 1012.4
20260904181212 93 351 10.0 12.0 0.00 0.00 0.00 36 1012.4
20260904180956 93 351 10.0 12.0 0.00 0.00 0.00 36 1012.4
20260904175932 93 351 7.0 12.0 0.00 0.00 0.00 36 1012.4
20260904173845 92 351 10.0 15.0 0.00 0.00 0.00 38 1012.4
20260904172821 91 351 10.0 15.0 0.00 0.00 0.00 39 1013.4
20260904172033 91 351 10.0 14.0 0.00 0.00 0.00 39 1013.4
20260904171757 91 351 10.0 14.0 0.00 0.00 0.00 39 1013.4
20260904170734 90 351 8.0 13.0 0.00 0.00 0.00 40 1013.4
20260904165710 90 351 8.0 12.0 0.00 0.00 0.00 41 1013.4
20260904164647 90 351 8.0 15.0 0.00 0.00 0.00 41 1013.4
20260904164057 89 351 11.0 13.0 0.00 0.00 0.00 41 1013.4
20260904163623 89 351 11.0 13.0 0.00 0.00 0.00 41 1013.4
20260904163213 89 351 10.0 13.0 0.00 0.00 0.00 43 1013.4
20260904162559 89 351 10.0 13.0 0.00 0.00 0.00 43 1013.4
20260904161536 88 351 8.0 12.0 0.00 0.00 0.00 45 1013.4
20260904160513 88 351 9.0 12.0 0.00 0.00 0.00 46 1013.4
20260904155449 87 351 10.0 11.0 0.00 0.00 0.00 47 1013.4
20260904154425 87 351 9.0 13.0 0.00 0.00 0.00 48 1013.4
20260904153454 87 351 9.0 11.0 0.00 0.00 0.00 50 1013.4
20260904153402 87 351 9.0 11.0 0.00 0.00 0.00 50 1013.4
20260904152339 86 351 7.0 13.0 0.00 0.00 0.00 54 1013.4
20260904151315 84 351 10.0 13.0 0.00 0.00 0.00 56 1014.4
20260904150253 83 351 9.0 13.0 0.00 0.00 0.00 61 1014.4
20260904145415 82 347 9.0 11.0 0.00 0.00 0.00 62 1014.4
20260904145226 82 347 9.0 11.0 0.00 0.00 0.00 62 1014.4
20260904144203 82 347 9.0 11.0 0.00 0.00 0.00 66 1014.4
20260904143139 81 347 8.0 10.0 0.00 0.00 0.00 67 1014.4
20260904142116 81 347 7.0 12.0 0.00 0.00 0.00 68 1014.4
20260904141053 80 347 8.0 10.0 0.00 0.00 0.00 68 1014.4
20260904140235 80 347 7.0 10.0 0.00 0.00 0.00 69 1014.4
20260904140030 80 347 7.0 10.0 0.00 0.00 0.00 69 1014.4
20260904135007 79 347 7.0 10.0 0.00 0.00 0.00 72 1014.4
20260904134022 79 347 7.0 10.0 0.00 0.00 0.00 73 1014.4
20260904133944 79 347 7.0 10.0 0.00 0.00 0.00 73 1014.4
20260904133752 79 347 9.0 10.0 0.00 0.00 0.00 74 1013.4
20260904132921 79 347 9.0 10.0 0.00 0.00 0.00 74 1013.4
20260904131938 78 347 8.0 9.0 0.00 0.00 0.00 76 1013.4
20260904131858 78 347 8.0 9.0 0.00 0.00 0.00 76 1013.4
20260904131153 78 347 7.0 9.0 0.00 0.00 0.00 77 1013.4
20260904130835 78 347 7.0 9.0 0.00 0.00 0.00 77 1013.4
20260904125812 77 347 7.0 9.0 0.00 0.00 0.00 79 1013.4
20260904124749 77 347 7.0 8.0 0.00 0.00 0.00 79 1013.4
20260904122703 77 347 7.0 8.0 0.00 0.00 0.00 77 1013.4
20260904121640 77 347 6.0 8.0 0.00 0.00 0.00 77 1013.4
20260904120617 77 351 7.0 7.0 0.00 0.00 0.00 76 1012.4
20260904115554 77 347 6.0 7.0 0.00 0.00 0.00 76 1013.4
20260904114502 77 351 7.0 8.0 0.00 0.00 0.00 76 1013.4
20260904113424 77 347 7.0 9.0 0.00 0.00 0.00 76 1012.4
20260904111338 77 347 6.0 9.0 0.00 0.00 0.00 75 1012.4
20260904110917 78 347 7.0 7.0 0.00 0.00 0.00 74 1012.4
20260904110315 78 347 7.0 7.0 0.00 0.00 0.00 74 1012.4
20260904110233 78 347 6.0 6.0 0.00 0.00 0.00 74 1012.4
20260904105237 78 347 6.0 6.0 0.00 0.00 0.00 74 1012.4
20260904104214 78 347 5.0 8.0 0.00 0.00 0.00 74 1012.4
20260904103151 78 351 5.0 7.0 0.00 0.00 0.00 72 1012.4
20260904102241 78 351 6.0 8.0 0.00 0.00 0.00 71 1013.4
20260904102051 78 351 6.0 8.0 0.00 0.00 0.00 71 1013.4
20260904100954 78 347 6.0 7.0 0.00 0.00 0.00 70 1012.4
20260904095844 79 351 6.0 8.0 0.00 0.00 0.00 69 1012.4
20260904094821 79 347 7.0 8.0 0.00 0.00 0.00 69 1012.4
20260904093758 79 347 5.0 7.0 0.00 0.00 0.00 68 1012.4
20260904092735 79 351 7.0 9.0 0.00 0.00 0.00 68 1012.4
20260904091712 79 347 7.0 11.0 0.00 0.00 0.00 68 1012.4
20260904090649 79 347 7.0 9.0 0.00 0.00 0.00 67 1012.4
20260904085626 79 351 7.0 8.0 0.00 0.00 0.00 67 1012.4
20260904084603 79 347 7.0 7.0 0.00 0.00 0.00 66 1012.4
20260904083540 79 351 6.0 8.0 0.00 0.00 0.00 65 1012.4
20260904083050 79 351 5.0 8.0 0.00 0.00 0.00 65 1013.4
20260904082512 79 351 5.0 8.0 0.00 0.00 0.00 65 1013.4
20260904081634 79 351 7.0 9.0 0.00 0.00 0.00 65 1013.4
20260904081449 79 351 7.0 9.0 0.00 0.00 0.00 65 1013.4
20260904081247 79 351 7.0 10.0 0.00 0.00 0.00 64 1013.4
20260904080426 79 351 7.0 10.0 0.00 0.00 0.00 64 1013.4
20260904075403 79 351 7.0 8.0 0.00 0.00 0.00 63 1013.4
20260904074603 79 351 7.0 10.0 0.00 0.00 0.00 63 1013.4
20260904074339 79 351 7.0 10.0 0.00 0.00 0.00 63 1013.4
20260904073316 80 351 8.0 10.0 0.00 0.00 0.00 62 1013.4
20260904072253 80 351 8.0 9.0 0.00 0.00 0.00 61 1013.4
20260904071230 80 351 7.0 9.0 0.00 0.00 0.00 60 1013.4
20260904065139 81 351 10.0 12.0 0.00 0.00 0.00 58 1013.4
20260904064540 81 351 11.0 14.0 0.00 0.00 0.00 57 1013.4
20260904064117 81 351 11.0 14.0 0.00 0.00 0.00 57 1013.4
20260904063437 81 351 10.0 16.0 0.00 0.00 0.00 56 1013.4
20260904063054 81 351 10.0 16.0 0.00 0.00 0.00 56 1013.4
20260904062144 82 351 10.0 14.0 0.00 0.00 0.00 55 1012.4
20260904062030 82 351 10.0 14.0 0.00 0.00 0.00 55 1012.4
20260904061007 82 351 8.0 9.0 0.00 0.00 0.00 53 1012.4
20260904060128 83 351 10.0 18.0 0.00 0.00 0.00 52 1012.4
20260904055944 82 351 10.0 16.0 0.00 0.00 0.00 52 1012.4
20260904054920 83 351 10.0 18.0 0.00 0.00 0.00 52 1012.4
20260904053943 83 351 13.0 13.0 0.00 0.00 0.00 51 1012.4
20260904053858 83 351 13.0 13.0 0.00 0.00 0.00 51 1012.4
20260904053022 83 351 12.0 16.0 0.00 0.00 0.00 49 1012.4
20260904052835 83 351 12.0 16.0 0.00 0.00 0.00 49 1012.4
20260904052105 84 351 12.0 14.0 0.00 0.00 0.00 48 1012.4
20260904051811 84 351 12.0 14.0 0.00 0.00 0.00 48 1012.4
20260904051010 84 351 10.0 17.0 0.00 0.00 0.00 47 1012.4
20260904050748 84 351 10.0 17.0 0.00 0.00 0.00 47 1012.4
20260904045919 85 351 12.0 18.0 0.00 0.00 0.00 45 1012.4
20260904045725 85 351 12.0 18.0 0.00 0.00 0.00 45 1012.4
20260904044835 85 351 13.0 16.0 0.00 0.00 0.00 43 1012.4
20260904044701 85 351 13.0 16.0 0.00 0.00 0.00 43 1012.4
20260904043637 86 351 11.0 15.0 0.00 0.00 0.00 42 1012.4
20260904042612 86 351 11.0 17.0 0.00 0.00 0.00 41 1012.4
20260904042251 87 351 11.0 13.0 0.00 0.00 0.00 40 1012.4
20260904041549 87 351 11.0 13.0 0.00 0.00 0.00 40 1012.4
20260904040937 87 351 15.0 20.0 0.00 0.00 0.00 39 1011.4
20260904040525 87 351 15.0 20.0 0.00 0.00 0.00 39 1011.4
20260904035501 88 351 15.0 19.0 0.00 0.00 0.00 39 1011.4
20260904034439 88 351 16.0 20.0 0.00 0.00 0.00 38 1011.4
20260904033414 89 351 14.0 19.0 0.00 0.00 0.00 38 1011.4
20260904032940 89 351 16.0 21.0 0.00 0.00 0.00 38 1010.4
20260904032352 89 351 16.0 21.0 0.00 0.00 0.00 38 1010.4
20260904031458 90 351 15.0 23.0 0.00 0.00 0.00 37 1010.4
20260904031327 90 351 15.0 23.0 0.00 0.00 0.00 37 1010.4
20260904030304 90 351 14.0 20.0 0.00 0.00 0.00 35 1010.4
20260904025317 91 351 15.0 19.0 0.00 0.00 0.00 30 1009.4
20260904025240 90 351 16.0 22.0 0.00 0.00 0.00 33 1009.4
20260904024217 91 351 15.0 19.0 0.00 0.00 0.00 30 1009.4
20260904023153 91 351 14.0 23.0 0.00 0.00 0.00 28 1009.4
20260904022130 91 351 10.0 11.0 0.00 0.00 0.00 26 1009.4
20260904021218 92 351 9.0 10.0 0.00 0.00 0.00 25 1009.4
20260904021106 92 351 9.0 10.0 0.00 0.00 0.00 25 1009.4
20260904020518 92 351 10.0 11.0 0.00 0.00 0.00 25 1009.4
20260904020043 92 351 10.0 11.0 0.00 0.00 0.00 25 1009.4
20260904015441 92 351 9.0 10.0 0.00 0.00 0.00 24 1008.4
20260904015019 92 351 9.0 10.0 0.00 0.00 0.00 24 1008.4
20260904014530 93 351 8.0 9.0 0.00 0.00 0.00 23 1008.4
20260904013956 93 351 8.0 9.0 0.00 0.00 0.00 23 1008.4
20260904013112 94 351 8.0 9.0 0.00 0.00 0.00 23 1008.4
20260904012932 94 351 8.0 9.0 0.00 0.00 0.00 23 1008.4
20260904012031 94 351 7.0 10.0 0.00 0.00 0.00 21 1008.4
20260904011909 94 351 7.0 10.0 0.00 0.00 0.00 21 1008.4
20260904010845 95 351 8.0 10.0 0.00 0.00 0.00 21 1008.4
20260904005917 96 351 7.0 10.0 0.00 0.00 0.00 20 1008.4
20260904005821 96 351 7.0 10.0 0.00 0.00 0.00 20 1008.4
20260904005153 97 351 9.0 11.0 0.00 0.00 0.00 19 1008.4
20260904004757 97 351 9.0 11.0 0.00 0.00 0.00 19 1008.4
20260904003734 97 351 8.0 11.0 0.00 0.00 0.00 19 1007.4
20260904002710 98 351 9.0 10.0 0.00 0.00 0.00 18 1007.4
20260904001646 98 351 9.0 11.0 0.00 0.00 0.00 17 1007.4
20260904000740 99 351 8.0 13.0 0.00 0.00 0.00 17 1007.4
20260904000622 99 351 8.0 13.0 0.00 0.00 0.00 17 1007.4